Regional Weather Roundup
Issued by NWS

Home | Current Version | Previous Version | Text Only | Print | Product List | Glossary On
Versions: 1 2 3 4 5 6 7 8 9 10 11 12 13 14 15 16 17 18 19 20 21 22 23 24 25 26 27 28 29 30 31 32 33 34 35 36 37 38 39 40 41 42 43 44 45 46 47 48 49 50
746
ASUS45 KBOU 252007
RWRCO

WEATHER ROUNDUP FOR COLORADO
NATIONAL WEATHER SERVICE DENVER/BOULDER CO
200 PM MDT THU MAY 25 2017

NOTE: "FAIR" INDICATES FEW OR NO CLOUDS BELOW 12000 FEET WITH NO
SIGNIFICANT WEATHER AND/OR OBSTRUCTIONS TO VISIBILITY.

COZ001>005-013-030-031-252100-
...NORTHWEST COLORADO...

CITY           SKY/WX    TMP DP  RH WIND       PRES   REMARKS
CRAIG          FAIR      66  41  40 W10       29.71F
HAYDEN         FAIR      61  39  44 NW10      29.72F
MEEKER         FAIR      66  41  40 S7        29.71F
RABBIT EARS PA CLOUDY    41  32  70 SW15G28   29.91S
STEAMBOAT SPGS PTSUNNY   59  41  51 NE6       29.73F
WALDEN           N/A     57  36  44 SW17G25   29.79S
$$

COZ006>008-011-252100-
...WEST CENTRAL VALLEYS...

CITY           SKY/WX    TMP DP  RH WIND       PRES   REMARKS
GRAND JUNCTION FAIR      82  28  14 W20G33    29.61S
MONTROSE       PTSUNNY   73  25  16 W22G35    29.71R
EAGLE          MOSUNNY   66  32  28 SW20G31   29.76R
RIFLE          FAIR      79  24  13 W26G32    29.64F
DELTA          NOT AVBL
NUCLA          NOT AVBL
$$

COZ017>023-064>068-252100-
...SOUTHWEST COLORADO...

CITY           SKY/WX    TMP DP  RH WIND       PRES   REMARKS
DURANGO        FAIR      73  17  12 W24G32    29.80S
CORTEZ         FAIR      79  20  11 SW22G39   29.75F
PAGOSA SPRINGS NOT AVBL
TELLURIDE      NOT AVBL
WOLF CREEK PAS PTSUNNY   43  18  36 SW26G37   30.12F
$$

COZ009-010-012-014-032>034-037-058>063-252100-
...CENTRAL COLORADO...

CITY           SKY/WX    TMP DP  RH WIND       PRES   REMARKS
ASPEN          CLOUDY    56  33  42 N17G33    29.81R
BUENA VISTA    NOT AVBL
COPPER MTN     PTSUNNY   41  30  65 NW22G30   30.00R THUNDER
BERTHOUD PASS  LGT SNOW  32  23  69 W36G48    30.02R WCI  16
COTTONWOOD PAS FAIR      61   1   9 SW39G53   29.81R
GUNNISON       FAIR      70  22  16 W25G39    29.76F
KREMMLING      TSTM      55  45  67 SW14G23   29.80R
LEADVILLE      PTSUNNY   54  21  27 NW10G22   29.87F
MONARCH PASS   PTSUNNY   46  14  27 W55G67    30.10S
SALIDA         NOT AVBL
SUNLIGHT       FAIR      43  28  56 SW21G43   29.96R
WILKERSON PASS PTSUNNY   52  14  22 SW13G32   29.96S
$$

COZ069>075-252100-
...SAN LUIS VALLEY/SANGRE DE CRISTO MOUNTAINS...

CITY           SKY/WX    TMP DP  RH WIND       PRES   REMARKS
ALAMOSA        FAIR      73  14  10 W29G38    29.81F
DEL NORTE      FAIR      71  18  13 W23G36    29.83F
LA VETA PASS   FAIR      61  14  16 MISG      30.06S
SAGUACHE       FAIR      72  19  14 W21G32    29.79F
$$

COZ035-036-038>040-252100-
...NORTHERN COLORADO FRONT RANGE...

CITY           SKY/WX    TMP DP  RH WIND       PRES   REMARKS
DENVER INTL AP PTSUNNY   71  45  39 N20G35    29.58S
DMNS CITY PARK   N/A     71  35  27 N14G28    29.59S
AURORA         PTSUNNY   71  40  32 N14       29.62R
FRONT RANGE AP PTSUNNY   73  46  38 NE13G18   29.60S
ERIE MUNI ARPT FAIR      65  48  53 N8        29.61R
BOULDER MUN AP FAIR      68  43  40 CALM      29.63R
CENTENNIAL     PTSUNNY   71  39  31 N18G28    29.61R
BROOMFIELD     PTSUNNY   66  45  45 N9        29.64R
FORT COLLINS   FAIR      69  46  43 N12       29.60S
LONGMONT       FAIR      73  44  36 E5        29.63R
$$

COZ041-046-047-076>085-087-088-252100-
...PIKES PEAK/PALMER DIVIDE AND SOUTHERN FOOTHILLS...

CITY           SKY/WX    TMP DP  RH WIND       PRES   REMARKS
COLO. SPRINGS  PTSUNNY   75  29  18 S20G28    29.64S
A. F. ACADEMY  PTSUNNY   74  19  12 W15G22    29.65R
SCHRIEVER AFB  PTSUNNY   73  28  19 S21G33    29.64S
CHEYENNE MTN   FAIR      72  25  17 S16G29    29.62
ELLICOTT       FAIR     N/A N/A N/A SW26G32   29.62F
FALCON         NOT AVBL
FORT CARSON    FAIR      79  30  16 S23G33    29.60F
LIMON          FAIR      75  29  18 CALM      29.57F
MONUMENT HILL  FAIR      73  28  19 W26G35    29.69S
CANON CITY     NOT AVBL
WALSENBURG     FAIR      81  25  12 SW28G40   29.66F
TRINIDAD       FAIR      83  20   9 W29G38    29.68F
$$

COZ042>045-048>051-090-091-252100-
...NORTHEAST COLORADO...

CITY           SKY/WX    TMP DP  RH WIND       PRES   REMARKS
GREELEY ARPT   FAIR      70  48  45 NE7       29.61R
AKRON          FAIR      69  49  48 N32G40    29.57F THUNDER
BURLINGTON     FAIR      84  53  34 MISG      29.53F
WRAY           NOT AVBL
YUMA           FAIR      73  48  40 N16       29.56R
STERLING       PTSUNNY   59  54  82 NE5       29.57F
HOLYOKE        NOT AVBL
FORT MORGAN    NOT AVBL
$$

COZ086-089-092>099-252100-
...SOUTHEAST COLORADO...

CITY           SKY/WX    TMP DP  RH WIND       PRES   REMARKS
PUEBLO         FAIR      85  31  14 SW13G21   29.54F
LA JUNTA       FAIR      89  32  13 W20G28    29.52F
LAMAR          FAIR      91  35  13 W18G29    29.47F
SPRINGFIELD      N/A     89  36  15 MISG      29.55F
$$




USA.gov is the U.S. government's official web portal to all federal, state and local government web resources and services.